Regional Weather Roundup
Issued by NWS

Home | Current Version | Previous Version | Graphics & Text | Print | Product List | Glossary On
Versions: 1 2 3 4 5 6 7 8 9 10 11 12 13 14 15 16 17 18 19 20 21 22 23 24 25 26 27 28 29 30 31 32 33 34 35 36 37 38 39 40 41 42 43 44 45 46 47 48 49 50
000
ASUS43 KBIS 280601
RWRND

NORTH DAKOTA REGIONAL WEATHER ROUNDUP
NATIONAL WEATHER SERVICE BISMARCK ND
1200 AM CST SAT FEB 28 2015

NOTE: "FAIR" INDICATES FEW OR NO CLOUDS BELOW 12,000 FEET WITH NO
SIGNIFICANT WEATHER AND/OR OBSTRUCTIONS TO VISIBILITY.


NDZ001>003-009>011-017-280700-
NORTHWEST NORTH DAKOTA

CITY           SKY/WX    TMP DP  RH WIND       PRES   REMARKS
WILLISTON      MOCLDY    13   5  70 N3        30.04F
6HR MIN TEMP:  13; 6HR MAX TEMP:  25;

MINOT          CLOUDY    14   2  58 S10G21    30.09F WCI   1
$$

NDZ018>021-031>035-040>046-280700-
SOUTHWEST NORTH DAKOTA

CITY           SKY/WX    TMP DP  RH WIND       PRES   REMARKS
BISMARCK       CLOUDY     9   2  73 SE8       30.16F WCI  -3
6HR MIN TEMP:   8; 6HR MAX TEMP:  17;

DICKINSON      MOCLDY    12   4  70 S8        29.99F WCI   0
GARRISON         N/A     11   3  70 S9        30.09F WCI  -2
6HR MIN TEMP:   6; 6HR MAX TEMP:  16;

HETTINGER ARPT PTCLDY    12   3  67 SE5       30.02S WCI   4
$$

NDZ004>008-012>016-024-026-027-054-280700-
NORTHEAST NORTH DAKOTA

CITY           SKY/WX    TMP DP  RH WIND       PRES   REMARKS
GRAND FORKS    MOCLDY     4  -3  73 S12       30.32F WCI -12
GRND FRKS AFB  MOCLDY     6  -2  70 S10       30.30F WCI  -9
DEVILS LAKE    PTCLDY     7  -2  66 S15       30.20S WCI -11
$$

NDZ022-023-025-028>030-036>039-047>053-280700-
SOUTHEAST NORTH DAKOTA

CITY           SKY/WX    TMP DP  RH WIND       PRES   REMARKS
FARGO          PTCLDY     8  -2  63 S10       30.36F WCI  -6
6HR MIN TEMP:   6; 6HR MAX TEMP:  14;

JAMESTOWN      PTCLDY     3  -3  76 S13       30.23F WCI -14
$$




USA.gov is the U.S. government's official web portal to all federal, state and local government web resources and services.